Location: Finkenbach
(49.5340°N, 8.9188°E)
Time: 04:47:26
(UTC+00:00)

NOSS 2-1 (D) - Pass Details

Date: 17 June 2025
Orbit: 377 x 1695 km, 63.3° (Epoch: 12 July)

Event Time Altitude Azimuth Distance (km) Brightness Sun altitude
Rises 22:26:21 0° 318° (NW) 2,376 7.7 -15.9°
Reaches altitude 10° 22:28:12 10° 320° (NW) 1,590 6.7 -16.0°
Maximum altitude 22:31:39 77° 47° (NE) 550 3.3 -16.1°
Enters shadow 22:34:12 24° 131° (SE) 1,274 4.7 -16.2°
